COSMOS 1275 DEB

Satellite information

Favourite Embed

Satellite Type and Status

DEBRISIN ORBIT

Key statistics

Satellite COSMOS 1275 DEB at a glance.

Uptime

16220

Days in orbit

Revolutions

≈ 14.0

Per day

Orbit

LEO

Low Earth Orbit

Inclination

82.8

Latest

Satellite identification and parameters

Extended collection of information and parameters for COSMOS 1275 DEB.

Object identification

Identified? True

Debris? True

Object name: COSMOS 1275 DEB

International designator: 1981-053NX

Object number (NORAD): 39961

Object ID (CCSDS): 39961

Country: COMMONWEALTH OF INDEPENDENT STATES (CIS)

Current information (Y/N): Y

RCS size: SMALL

Orbital parameters

Period: 103.204 minutes

Inclination: 82.7716 deg

SMA: 7288.271 km

Apoapsis: 949.396 km

Periapsis: 870.876 km

RAAN: 37.0524 deg

Eccentricy: 0.00538669

Argument of periapsis: 248.4315 deg

Mean anomaly: 174.6352 deg

Mean motion: 13.95294887 rev/day

Mean motion (dot): 0.00002366 rev/day2

B* drag term: 0.0017179825 1/REarth

Two-line elements (TLE)

Creation date: Oct. 27, 2025, 2:46 a.m.

Reference frame: TEME

Reference center: EARTH

Epoch: Oct. 26, 2025, 2:01 p.m. UTC

TLE line 0: 0 COSMOS 1275 DEB

TLE line 1: 1 39961U 81053NX 25299.58464551 .00002366 00000-0 17180-2 0 9996

TLE line 2: 2 39961 82.7716 37.0524 0053867 248.4315 174.6352 13.95294887577900

Live tracking on map

Real-time ground track for satellite COSMOS 1275 DEB.

In-orbit conjunctions

A list of the most updated potential collisions computed for object COSMOS 1275 DEB.

Target Orbit TCA Probability of collision Miss distance Type
SL-8 R/B LEO 2025-02-17 17:21:19 0.000802763 110.0 (m) ROCKET BODY

Associated space launch

Navigation satellite providing location information for the Tsiklon-B navigation system

COSMOS 1275 DEB was lifted into orbit during the mission ‘Kosmos-3M | Parus 27’, on board a Kosmos-3M space rocket.

The launch took place on June 4, 1981, 3:41 p.m. from 132/2.

For more information about the launch, click the button.

Launch to space Kosmos-3M | Parus 27
Kosmos-3M | Parus 27

Agency: N/A

Status: Launch Successful

Launch date: June 4, 1981, 3:41 p.m. UTC

Rocket: Kosmos-3M

Launch pad: 132/2

Location: Plesetsk Cosmodrome, Russian Federation

...

Latest news about this satellite

There are no fresh news available about this satellite. Check back as we update our databases every day.


Newsletter sign-up

Weekly statistics, charts and insights to help you stay on top of the space industry.